User: anonymous   Login
Location: Mt. Cuba Astronomical Observatory
(39.8100°N, 75.6300°W)
Time: 11:26:16
(UTC-04:00)
Language:

Cosmos 2058 - Orbit

View from above orbital plane
View from above orbital plane
View from above satellite
View from above satellite

Ground track
Ground track

The orbit data is extracted from the following two-line orbital elements,

1 20465U 90010A   14296.77552021  .00004451  00000-0  40169-3 0  2617
2 20465 082.4890 096.9473 0015367 313.2602 046.7336 14.95231732340628
Epoch (UTC): 23 October 2014 18:36:44
Eccentricity: 0.0015367
inclination: 82.4890°
perigee height: 571 km
apogee height: 592 km
right ascension of ascending node: 96.9473°
argument of perigee: 313.2602°
revolutions per day: 14.95231732
mean anomaly at epoch: 46.7336°
orbit number at epoch: 34062

The dashed part of the orbit path shows where the satellite is in the earth's shadow,  

DLR